STARLINK-37327, 68736

Orbit data source: Space-Track

STARLINK-37327, 68736 is a payload satellite owned by SpaceX/Seattle (US) in SSO that was launched on Wed, 15 Apr 2026 UTC via an FALCON 9 launch vehicle from the Air Force Western Test Range (AFWTR). Payload-class satellites include a variety of spacecraft equipped with specific instruments for various scientific and technological missions. These include communications satellites like Starlink; space stations such as the ISS; scientific satellites like the Hubble; Earth observation satellites from companies like Planet Labs, Umbra, and HawkEye 360; GPS; miniature CubeSats for education and research; and military/defense satellites.

Loading next visibility...
Identifier
68736, 2026-082J
Orbit
SSO
Country
Flag of USUS
Related business
Manufacturer
SpaceX/Seattle
Mission
Operational spacecraft
Bus & Motor
STARLINK V2MO, Unknown motor
Mass
575 kg wet, ~530 kg dry
Launch date (UTC)
2026-04-15 (2 months ago)
Launch vehicle
FALCON 9
Launch site
Air Force Western Test Range (AFWTR)
Object type
Payload
Rocket body
Debris
Shape & HBR
Unknown shape, 14.5 m
Radar Cross Section
Large (>1 m²)

Expand to show TLE details & history
Last TLE update: 19 hours ago

TLE from 19 hours ago
0 STARLINK-37327
1 68736U 26082J   26171.03854638  .00016398  00000-0  50910-3 0  9997
2 68736  97.2865  34.4682 0001436 118.0830 242.0558 15.33449056 10132
Epoch: 2026-06-20T00:55Z
TLE epoch observation values (Epoch: 2026-06-20T00:55:30.407Z)
Latitude
-0.00001°
Longitude
112.3326°
Altitude
469.104 km
Speed
7.631 km/s
True Right ascension
02h 17m 52s
True Declination
0° 00' 00"
Sunlit
Object was in daylight at epoch
Visualization orbit readout
Latitude
Unknown
Longitude
Unknown
Altitude
Unknown
Speed
Unknown
Apparent Right ascension
Unknown
Apparent Declination
Unknown
Sunlit
N/A
Visualization observer readout
Local Sidereal Time
07:17:49
Azimuth
Unknown
Elevation
Unknown
Doppler factor
Unknown
Orbital elements
Apogee altitude
463.456 km
Perigee altitude
461.492 km
Semi-major axis
6,840.611 km
Eccentricity
0.00014
Inclination
97.2865°
RAAN
34.4682°
Arg. of periapsis
118.083°
True anomaly
242.04126°
Mean anomaly
242.0558°
Eccentric anomaly
242.04853°
Mean motion
3.8362 °/min
Orbital period
93.84 mins
BSTAR
0.0005091
Loading maneuver chart data...
Computing Atmospheric mass density...
Loading historical data...
Loading historical data...
Loading historical data...
Loading historical data...
Loading historical data...
Loading historical data...
Loading historical data...

Documentation

Showing up to 5 results
|